Location: Lake Runnemede Observatory
(43.4843°N, 72.3851°W)
Time: 12:22:50
(UTC-05:00)

Amateur Radio Satellites - All Passes

Search period start: 18 December 2014 11:52
Search period end: 19 December 2014 11:52
Location: Lake Runnemede Observatory, 43.4843°N, 72.3851°W

Satellite Date Start Highest point End Downlink Frequencies (MHz)
Time Altitude Azimuth
RS-15 18 Dec 11:52:53 12:03:39 67° 117° (ESE) 12:14:27 29.354- 29.394
SPROUT 18 Dec 12:09:15 12:13:34 79° 103° (ESE) 12:17:52 437.525
O/OREOS (USA 219) 18 Dec 12:11:44 12:13:33 12° 262° (W) 12:15:22 437.305
AISAT 18 Dec 12:13:51 12:15:12 11° 301° (WNW) 12:16:32 437.250
TISAT 1 18 Dec 12:14:33 12:18:47 84° 284° (WNW) 12:23:01 437.305
BEESAT 18 Dec 12:15:31 12:18:21 15° 91° (E) 12:21:09 436.000
AO-7 18 Dec 12:18:53 12:21:05 11° 38° (NE) 12:23:16 29.400- 29.500
CUBEBUG 1 18 Dec 12:28:02 12:30:58 18° 296° (WNW) 12:33:53 437.445
YUBILEINY 18 Dec 12:32:36 12:39:51 31° 277° (W) 12:47:07 435.215
Gurwin Techsat 1B 18 Dec 12:45:07 12:49:44 31° 66° (ENE) 12:54:21 435.225
BEESAT 3 18 Dec 12:46:43 12:49:33 18° 111° (ESE) 12:52:25 437.485
PCSat 18 Dec 12:51:52 12:55:17 17° 105° (ESE) 12:58:42 145.827
HORYU 2 18 Dec 12:54:27 12:56:36 13° 60° (ENE) 12:58:46 437.375
Oscar 19 18 Dec 12:54:34 12:59:35 55° 260° (W) 13:04:40 437.125/150
AUBIESAT-1 18 Dec 12:59:29 13:01:45 14° 94° (E) 13:03:55 437.475
ITAMSAT 1 18 Dec 13:04:22 13:09:32 73° 73° (ENE) 13:14:42 435.822/435.867
M-CUBED/EXP-1 PRIME 18 Dec 13:22:03 13:25:51 27° 99° (E) 13:29:22 437.505
BEESAT 2 18 Dec 13:23:02 13:26:51 38° 117° (ESE) 13:30:45 435.950
ITUPSAT 1 18 Dec 13:25:37 13:30:25 75° 103° (ESE) 13:35:10 437.325
SWISSCUBE 18 Dec 13:26:14 13:31:02 84° 104° (ESE) 13:35:47 437.505
SPROUT 18 Dec 13:47:44 13:49:01 11° 300° (WNW) 13:50:19 437.525
BEESAT 18 Dec 13:51:52 13:56:35 60° 288° (WNW) 14:01:15 436.000
KKS-1 18 Dec 13:59:25 14:03:33 36° 98° (E) 14:07:40 437.445
ISS 18 Dec 13:59:39 14:02:40 33° 139° (SE) 14:05:41 145.825
JAS-2 18 Dec 14:00:53 14:04:26 14° 54° (NE) 14:07:50 435.910
STARS 18 Dec 14:01:30 14:05:13 26° 95° (E) 14:08:55 437.465
AO-7 18 Dec 14:03:59 14:11:42 45° 61° (ENE) 14:19:27 29.400- 29.500
RS-15 18 Dec 14:06:26 14:16:39 43° 322° (NW) 14:27:04 29.354- 29.394
AIST 2 18 Dec 14:15:34 14:19:45 65° 121° (ESE) 14:24:01 435.215
BEESAT 3 18 Dec 14:23:25 14:27:23 47° 309° (NW) 14:31:26 437.485
Gurwin Techsat 1B 18 Dec 14:24:44 14:29:36 36° 263° (W) 14:34:29 435.225
HORYU 2 18 Dec 14:28:15 14:32:41 71° 258° (WSW) 14:37:12 437.375
PCSat 18 Dec 14:32:41 14:38:04 71° 303° (WNW) 14:43:31 145.827
AUBIESAT-1 18 Dec 14:32:47 14:37:11 58° 293° (WNW) 14:41:12 437.475
GONETS M04 18 Dec 14:34:53 14:39:35 15° 55° (NE) 14:44:15
ITAMSAT 1 18 Dec 14:46:48 14:49:33 14° 270° (W) 14:52:19 435.822/435.867
M-CUBED/EXP-1 PRIME 18 Dec 14:56:53 15:00:51 31° 298° (WNW) 15:04:33 437.505
BEESAT 2 18 Dec 15:01:45 15:05:14 25° 316° (NW) 15:08:45 435.950
ITUPSAT 1 18 Dec 15:05:15 15:07:42 14° 300° (WNW) 15:10:08 437.325
SWISSCUBE 18 Dec 15:06:09 15:08:12 13° 301° (WNW) 15:10:14 437.505
ISS 18 Dec 15:36:06 15:39:13 38° 337° (NNW) 15:42:21 145.825
KKS-1 18 Dec 15:36:27 15:40:00 24° 294° (WNW) 15:43:33 437.445
STARS 18 Dec 15:37:47 15:41:42 32° 292° (WNW) 15:45:38 437.465
JAS-2 18 Dec 15:40:45 15:48:20 65° 72° (ENE) 15:55:19 435.910
Cubesat XI-IV 18 Dec 15:43:17 15:46:10 15° 58° (ENE) 15:49:03 437.490
AIST 2 18 Dec 15:55:45 15:58:48 19° 320° (NW) 16:01:53 435.215
AO-7 18 Dec 15:56:33 16:04:25 46° 260° (W) 16:12:23 29.400- 29.500
AIST 1 18 Dec 16:01:22 16:05:26 38° 92° (E) 16:09:29
CUTE-I 18 Dec 16:15:25 16:19:48 27° 64° (ENE) 16:24:12 437.470
PCSat 18 Dec 16:19:21 16:22:30 15° 324° (NW) 16:25:39 145.827
RS-15 18 Dec 16:24:28 16:32:57 24° 356° (N) 16:41:38 29.354- 29.394
MOZHAYETS 4 18 Dec 16:27:37 16:32:05 45° 98° (E) 16:36:29
GONETS M04 18 Dec 16:29:31 16:38:19 70° 79° (E) 16:46:58
ISS 18 Dec 17:13:57 17:16:27 19° 356° (N) 17:18:56 145.825
Cubesat XI-IV 18 Dec 17:20:12 17:25:33 84° 256° (WSW) 17:30:54 437.490
JAS-2 18 Dec 17:27:22 17:33:40 27° 267° (W) 17:39:38 435.910
AIST 1 18 Dec 17:40:01 17:43:14 20° 289° (WNW) 17:46:28
CUBESAT XI-V 18 Dec 17:44:31 17:48:04 22° 93° (E) 17:51:36 437.345
CUTE-I 18 Dec 17:54:36 17:59:39 43° 261° (W) 18:04:43 437.470
PRISM 18 Dec 18:03:57 18:08:07 70° 102° (ESE) 18:12:14 437.425
MOZHAYETS 4 18 Dec 18:05:34 18:08:59 21° 296° (WNW) 18:12:23
HO-68 18 Dec 18:09:21 18:14:29 22° 54° (NE) 18:19:36 435.675
GONETS M04 18 Dec 18:27:29 18:34:18 26° 280° (W) 18:41:05
CUTE 1.7 + AOD 2 18 Dec 18:32:21 18:33:46 11° 61° (ENE) 18:35:11 437.475
STRAND 1 18 Dec 18:35:47 18:40:49 58° 101° (E) 18:45:50 437.568
RS-15 18 Dec 18:39:54 18:49:51 35° 30° (NNE) 19:00:06 29.354- 29.394
BRITE-PL 18 Dec 18:46:17 18:48:55 17° 64° (ENE) 18:51:32 437.365/2234.400
MaSat-1 18 Dec 18:50:00 18:52:08 28° 247° (WSW) 18:54:23 437.345
ISS 18 Dec 18:50:55 18:53:47 27° 17° (NNE) 18:56:38 145.825
CUSAT 1 18 Dec 18:58:20 19:04:15 25° 66° (ENE) 19:10:47 437.405
Cubesat XI-IV 18 Dec 19:05:20 19:06:24 11° 273° (W) 19:07:29 437.490
CUBESAT XI-V 18 Dec 19:21:22 19:25:39 40° 290° (WNW) 19:29:55 437.345
GOMX 1 18 Dec 19:23:21 19:26:54 28° 68° (ENE) 19:30:29 467.674
AAUSAT CUBESAT 2 18 Dec 19:28:57 19:32:33 28° 68° (ENE) 19:36:10 437.432
CANX-2 18 Dec 19:33:47 19:37:56 53° 73° (ENE) 19:42:08 2200.000
DANDE 18 Dec 19:38:28 19:45:16 39° 72° (ENE) 19:53:05 436.750
PRISM 18 Dec 19:41:30 19:43:05 12° 300° (WNW) 19:44:40 437.425
UWE-3 18 Dec 19:47:05 19:48:57 13° 61° (ENE) 19:50:51 435.000/436.395/437.385
FUNcube-1 18 Dec 19:52:18 19:53:59 12° 61° (ENE) 19:55:40 145.935
HO-68 18 Dec 19:54:09 20:01:21 84° 254° (WSW) 20:08:35 435.675
DOVE 4 18 Dec 19:58:36 20:02:35 49° 72° (ENE) 20:06:38 437.250
COMPASS 1 18 Dec 20:01:55 20:06:07 73° 75° (ENE) 20:10:22 437.405
AISAT 18 Dec 20:02:12 20:02:34 10° 58° (ENE) 20:02:56 437.250
SEEDS 18 Dec 20:04:21 20:08:36 89° 253° (WSW) 20:12:54 437.485
CUTE 1.7 + AOD 2 18 Dec 20:04:49 20:09:04 77° 258° (WSW) 20:13:23 437.475
SO-50 18 Dec 20:05:05 20:07:01 13° 107° (ESE) 20:08:59 436.795
DX 1 18 Dec 20:07:31 20:11:21 31° 68° (ENE) 20:15:12 434.975-435.025
STRAND 1 18 Dec 20:16:01 20:19:34 20° 299° (WNW) 20:23:07 437.568
BRITE-PL 18 Dec 20:23:07 20:27:09 44° 261° (W) 20:31:07 437.365/2234.400
ISS 18 Dec 20:27:20 20:30:36 69° 216° (SW) 20:33:51 145.825
DELFI C3 18 Dec 20:32:01 20:36:03 57° 74° (ENE) 20:40:07 145.870
Oscar 11 18 Dec 20:33:23 20:37:42 72° 75° (ENE) 20:42:03 145.826/435.025
50 SAT 18 Dec 20:36:22 20:38:55 17° 64° (ENE) 20:41:30 437.505
CUBEBUG 2 18 Dec 20:38:08 20:42:09 49° 72° (ENE) 20:46:16 437.445
CINEMA 3 18 Dec 20:40:07 20:44:16 85° 76° (ENE) 20:48:31 145.822/145.860
CUSAT 1 18 Dec 20:40:26 20:47:54 80° 262° (W) 20:56:25 437.405
UKube-1 18 Dec 20:40:28 20:44:46 69° 74° (ENE) 20:49:06 .
HUMSAT D 18 Dec 20:40:38 20:43:54 23° 67° (ENE) 20:47:12 437.325/437.525
ESTCUBE 1 18 Dec 20:49:18 20:51:27 13° 60° (ENE) 20:53:36 437.505/2401.250
RS-15 18 Dec 20:52:31 21:03:50 90° 57° (ENE) 21:15:39 29.354- 29.394
VELOX 1 18 Dec 20:52:44 20:56:38 32° 68° (ENE) 21:00:34 145.980
ZACube-1 18 Dec 20:58:12 21:02:18 60° 74° (ENE) 21:06:30 437.345
AIST 2 18 Dec 20:59:48 21:01:20 12° 33° (NNE) 21:02:51 435.215
GOMX 1 18 Dec 21:01:40 21:05:04 24° 265° (W) 21:08:28 467.674
BEESAT 3 18 Dec 21:04:29 21:07:42 21° 42° (NE) 21:10:53 437.485
AAUSAT CUBESAT 2 18 Dec 21:04:37 21:08:10 26° 265° (W) 21:11:46 437.432
UNISAT 6 18 Dec 21:10:57 21:12:10 11° 88° (E) 21:13:24 437.425
CANX-2 18 Dec 21:11:53 21:14:12 14° 270° (W) 21:16:32 2200.000
UWE-3 18 Dec 21:20:49 21:24:57 65° 259° (W) 21:29:11 435.000/436.395/437.385
DANDE 18 Dec 21:21:44 21:28:51 51° 267° (W) 21:37:03 436.750
FUNcube-1 18 Dec 21:25:36 21:29:45 69° 259° (WSW) 21:34:00 145.935
AISAT 18 Dec 21:34:02 21:38:28 88° 76° (ENE) 21:42:55 437.250
PCSat 18 Dec 21:36:47 21:41:00 22° 43° (NE) 21:45:12 145.827
DUCHIFAT 1 18 Dec 21:37:33 21:39:04 12° 90° (E) 21:40:35 145.980
DOVE 4 18 Dec 21:38:34 21:40:43 14° 270° (W) 21:42:54 437.250
ANTELSAT 18 Dec 21:40:32 21:44:16 23° 93° (E) 21:47:59 437.575/2403.000
COMPASS 1 18 Dec 21:41:54 21:42:21 10° 272° (W) 21:42:48 437.405
BEESAT 2 18 Dec 21:41:57 21:45:53 37° 49° (NE) 21:49:47 435.950
SO-50 18 Dec 21:42:19 21:46:51 78° 305° (NW) 21:51:34 436.795
DX 1 18 Dec 21:44:02 21:47:37 25° 265° (W) 21:51:13 434.975-435.025
HO-68 18 Dec 21:46:07 21:50:03 15° 272° (W) 21:54:00 435.675
BUGSAT 1 18 Dec 21:47:20 21:48:35 11° 90° (E) 21:49:49 437.445
YUBILEINY 18 Dec 21:47:42 21:50:34 12° 72° (ENE) 21:53:25 435.215
CUBEBUG 1 18 Dec 21:48:13 21:52:23 45° 71° (ENE) 21:56:33 437.445
QB50P2 18 Dec 21:48:31 21:51:13 16° 92° (E) 21:53:54 145.880/145.840
POLYITAN 1 18 Dec 21:56:11 21:59:20 20° 93° (E) 22:02:29 437.675
NANOSAT C BR1 18 Dec 22:00:16 22:03:32 21° 94° (E) 22:06:48 145.865
DELFI C3 18 Dec 22:09:55 22:11:41 12° 270° (W) 22:13:27 145.870
50 SAT 18 Dec 22:09:59 22:13:49 43° 261° (W) 22:17:42 437.505
Oscar 11 18 Dec 22:13:19 22:14:22 11° 272° (W) 22:15:26 145.826/435.025
QB50P1 18 Dec 22:13:55 22:17:41 30° 96° (E) 22:21:25 145.935-145.965
HUMSAT D 18 Dec 22:15:52 22:19:33 31° 264° (W) 22:23:17 437.325/437.525
CUBEBUG 2 18 Dec 22:16:50 22:19:11 15° 270° (W) 22:21:35 437.445
TIGRISAT 18 Dec 22:16:51 22:21:26 51° 100° (E) 22:26:01 435.000
UKube-1 18 Dec 22:19:57 22:21:23 11° 270° (W) 22:22:49 .
ESTCUBE 1 18 Dec 22:23:12 22:27:44 73° 258° (WSW) 22:32:17 437.505/2401.250
CUSAT 1 18 Dec 22:25:32 22:30:11 18° 278° (W) 22:35:09 437.405
VELOX 1 18 Dec 22:29:34 22:33:14 25° 265° (W) 22:36:56 145.980
AIST 2 18 Dec 22:36:34 22:40:51 61° 53° (NE) 22:45:04 435.215
ZACube-1 18 Dec 22:37:25 22:39:07 12° 271° (W) 22:40:50 437.345
POPSAT HIP 1 18 Dec 22:42:00 22:46:14 61° 101° (E) 22:50:27 437.405
BEESAT 3 18 Dec 22:42:06 22:46:10 51° 241° (WSW) 22:50:10 437.485
UNISAT 6 18 Dec 22:44:48 22:49:31 83° 284° (WNW) 22:54:15 437.425
ITUPSAT 1 18 Dec 22:59:05 23:01:12 13° 59° (ENE) 23:03:20 437.325
SWISSCUBE 18 Dec 22:59:06 23:01:34 14° 60° (ENE) 23:04:02 437.505
SPROUT 18 Dec 23:04:34 23:08:49 70° 75° (ENE) 23:13:06 437.525
RS-15 18 Dec 23:06:21 23:14:48 25° 258° (WSW) 23:23:32 29.354- 29.394
TISAT 1 18 Dec 23:08:10 23:12:22 85° 76° (ENE) 23:16:36 437.305
DUCHIFAT 1 18 Dec 23:11:08 23:15:21 65° 286° (WNW) 23:19:33 145.980
ANTELSAT 18 Dec 23:16:47 23:21:11 40° 290° (WNW) 23:25:35 437.575/2403.000
PCSat 18 Dec 23:19:32 23:24:57 70° 243° (WSW) 23:30:19 145.827
BUGSAT 1 18 Dec 23:20:28 23:24:28 61° 286° (WNW) 23:28:28 437.445
BEESAT 2 18 Dec 23:20:35 23:23:58 24° 247° (WSW) 23:27:18 435.950
BEESAT 18 Dec 23:23:10 23:26:47 22° 64° (ENE) 23:30:25 436.000
QB50P2 18 Dec 23:23:17 23:27:22 46° 288° (WNW) 23:31:28 145.880/145.840
SO-50 18 Dec 23:25:27 23:28:13 15° 326° (NW) 23:31:02 436.795
CUBEBUG 1 18 Dec 23:26:04 23:28:59 17° 268° (W) 23:31:54 437.445
POLYITAN 1 18 Dec 23:31:26 23:35:25 38° 290° (WNW) 23:39:24 437.675
NANOSAT C BR1 18 Dec 23:35:38 23:39:30 35° 290° (WNW) 23:43:22 145.865
YUBILEINY 18 Dec 23:36:55 23:45:32 66° 92° (E) 23:54:08 435.215
AUBIESAT-1 18 Dec 23:48:06 23:52:10 28° 61° (ENE) 23:56:18 437.475
QB50P1 18 Dec 23:49:57 23:53:28 26° 293° (WNW) 23:56:58 145.935-145.965
TIGRISAT 18 Dec 23:54:31 23:57:48 19° 296° (WNW) 00:01:06 435.000
M-CUBED/EXP-1 PRIME 19 Dec 00:11:29 00:16:07 48° 66° (ENE) 00:20:52 437.505
AIST 2 19 Dec 00:16:35 00:18:59 15° 251° (WSW) 00:21:21 435.215
POPSAT HIP 1 19 Dec 00:19:27 00:21:39 14° 298° (WNW) 00:23:51 437.405
UNISAT 6 19 Dec 00:24:35 00:25:32 11° 302° (WNW) 00:26:30 437.425
ITUPSAT 1 19 Dec 00:33:36 00:38:25 84° 256° (WSW) 00:43:15 437.325
SWISSCUBE 19 Dec 00:34:00 00:38:48 76° 257° (WSW) 00:43:38 437.505
O/OREOS (USA 219) 19 Dec 00:43:33 00:47:57 64° 110° (ESE) 00:52:23 437.305
SPROUT 19 Dec 00:44:20 00:45:23 11° 271° (W) 00:46:27 437.525
KKS-1 19 Dec 00:58:56 01:03:02 38° 70° (ENE) 01:07:08 437.445
BEESAT 19 Dec 00:59:44 01:04:20 46° 261° (W) 01:08:57 436.000
STARS 19 Dec 01:00:06 01:03:46 27° 67° (ENE) 01:07:27 437.465
Gurwin Techsat 1B 19 Dec 01:03:09 01:03:42 10° 86° (E) 01:04:15 435.225
Oscar 19 19 Dec 01:04:51 01:09:53 48° 99° (E) 01:14:54 437.125/150
ITAMSAT 1 19 Dec 01:16:44 01:20:51 23° 94° (E) 01:24:55 435.822/435.867
AUBIESAT-1 19 Dec 01:22:24 01:26:54 40° 258° (WSW) 01:31:32 437.475
YUBILEINY 19 Dec 01:35:40 01:43:00 29° 294° (WNW) 01:50:22 435.215
M-CUBED/EXP-1 PRIME 19 Dec 01:47:36 01:51:19 22° 263° (W) 01:55:07 437.505
AIST 1 19 Dec 02:09:27 02:10:49 11° 66° (ENE) 02:12:10
HORYU 2 19 Dec 02:19:27 02:22:52 21° 93° (E) 02:26:15 437.375
O/OREOS (USA 219) 19 Dec 02:25:05 02:27:49 16° 309° (NW) 02:30:33 437.305
STARS 19 Dec 02:36:19 02:40:09 30° 264° (W) 02:44:02 437.465
KKS-1 19 Dec 02:36:25 02:39:48 21° 266° (W) 02:43:11 437.445
Gurwin Techsat 1B 19 Dec 02:39:07 02:44:27 83° 104° (ESE) 02:49:46 435.225
Oscar 19 19 Dec 02:44:51 02:48:55 24° 297° (WNW) 02:52:57 437.125/150
VERMONT LUNAR 19 Dec 02:53:33 02:55:22 13° 150° (SSE) 02:57:10 437.305
ITAMSAT 1 19 Dec 02:55:37 03:00:32 45° 291° (WNW) 03:05:26 435.822/435.867
PHONESAT 2.4 19 Dec 02:59:33 03:00:09 10° 147° (SSE) 03:00:44 2401.200-2431.200
MOZHAYETS 4 19 Dec 03:30:39 03:35:07 48° 72° (ENE) 03:39:37
GONETS M04 19 Dec 03:40:21 03:44:52 15° 74° (ENE) 03:49:22
AIST 1 19 Dec 03:44:44 03:49:00 68° 264° (W) 03:53:13
HORYU 2 19 Dec 03:55:26 03:59:41 41° 290° (WNW) 04:03:54 437.375
AO-7 19 Dec 03:56:06 04:04:22 59° 103° (ESE) 04:12:34 29.400- 29.500
STRAND 1 19 Dec 04:17:03 04:19:29 14° 58° (ENE) 04:21:55 437.568
Gurwin Techsat 1B 19 Dec 04:20:48 04:23:43 15° 302° (WNW) 04:26:38 435.225
VERMONT LUNAR 19 Dec 04:29:50 04:33:08 38° 166° (SSE) 04:36:26 437.305
SO-50 19 Dec 04:32:49 04:36:40 23° 40° (NE) 04:40:32 436.795
PHONESAT 2.4 19 Dec 04:34:54 04:38:10 33° 162° (SSE) 04:41:28 2401.200-2431.200
JAS-2 19 Dec 04:35:17 04:40:47 45° 97° (E) 04:45:49 435.910
CUBESAT XI-V 19 Dec 04:49:15 04:53:05 25° 66° (ENE) 04:56:53 437.345
PRISM 19 Dec 04:55:38 04:59:48 61° 73° (ENE) 05:03:59 437.425
MOZHAYETS 4 19 Dec 05:09:24 05:12:36 18° 269° (W) 05:15:50
GONETS M04 19 Dec 05:31:17 05:40:05 77° 95° (E) 05:48:55
Cubesat XI-IV 19 Dec 05:36:37 05:41:29 35° 97° (E) 05:46:19 437.490
AO-7 19 Dec 05:49:25 05:56:45 36° 303° (WNW) 06:04:04 29.400- 29.500
STRAND 1 19 Dec 05:52:49 05:57:57 87° 256° (WSW) 06:03:05 437.568
VERMONT LUNAR 19 Dec 06:07:46 06:11:13 52° 183° (S) 06:14:40 437.305
CUTE-I 19 Dec 06:10:09 06:15:28 69° 103° (ESE) 06:20:45 437.470
SO-50 19 Dec 06:12:48 06:17:39 65° 239° (WSW) 06:22:30 436.795
PHONESAT 2.4 19 Dec 06:13:02 06:16:35 53° 179° (S) 06:20:08 2401.200-2431.200
JAS-2 19 Dec 06:20:54 06:25:36 26° 299° (WNW) 06:29:57 435.910
CUBESAT XI-V 19 Dec 06:26:03 06:30:21 36° 263° (W) 06:34:39 437.345
PRISM 19 Dec 06:33:56 06:35:43 12° 270° (W) 06:37:31 437.425
Cubesat XI-IV 19 Dec 07:16:50 07:21:30 32° 294° (WNW) 07:26:09 437.490
HO-68 19 Dec 07:22:24 07:26:45 17° 89° (E) 07:31:05 435.675
GONETS M04 19 Dec 07:30:53 07:37:52 25° 296° (WNW) 07:44:53
STRAND 1 19 Dec 07:36:58 07:37:51 10° 273° (W) 07:38:44 437.568
VERMONT LUNAR 19 Dec 07:46:07 07:49:14 29° 199° (SSW) 07:52:21 437.305
COMPASS 1 19 Dec 07:47:14 07:48:32 11° 89° (E) 07:49:49 437.405
SEEDS 19 Dec 07:49:29 07:51:54 15° 90° (E) 07:54:17 437.485
CUTE 1.7 + AOD 2 19 Dec 07:50:16 07:53:10 17° 92° (E) 07:56:03 437.475
CUTE-I 19 Dec 07:51:31 07:54:58 18° 300° (WNW) 07:58:24 437.470
PHONESAT 2.4 19 Dec 07:51:40 07:55:01 35° 196° (SSW) 07:58:22 2401.200-2431.200
DOVE 4 19 Dec 07:57:16 07:59:47 14° 91° (E) 08:02:23 437.250
MaSat-1 19 Dec 08:11:02 08:11:59 12° 109° (ESE) 08:12:55 437.345
UNISAT 6 19 Dec 08:11:56 08:13:26 12° 59° (ENE) 08:14:57 437.425
Oscar 11 19 Dec 08:21:45 08:23:32 12° 89° (E) 08:25:19 145.826/435.025
BRITE-PL 19 Dec 08:25:20 08:29:50 48° 99° (E) 08:34:39 437.365/2234.400
UKube-1 19 Dec 08:30:20 08:30:55 10° 89° (E) 08:31:29 .
CUBEBUG 2 19 Dec 08:30:38 08:31:40 11° 88° (E) 08:32:43 437.445
DUCHIFAT 1 19 Dec 08:32:30 08:33:53 11° 61° (ENE) 08:35:16 145.980
CINEMA 3 19 Dec 08:34:13 08:37:42 20° 93° (E) 08:41:16 145.822/145.860
BUGSAT 1 19 Dec 08:40:02 08:40:57 11° 61° (ENE) 08:41:51 437.445
ANTELSAT 19 Dec 08:41:26 08:44:51 23° 65° (ENE) 08:48:21 437.575/2403.000
QB50P2 19 Dec 08:43:36 08:46:06 16° 63° (ENE) 08:48:36 145.880/145.840
AAUSAT CUBESAT 2 19 Dec 08:46:23 08:50:28 44° 99° (E) 08:54:31 437.432
ZACube-1 19 Dec 08:47:56 08:49:31 12° 89° (E) 08:51:06 437.345
POLYITAN 1 19 Dec 08:51:20 08:54:16 19° 64° (ENE) 08:57:11 437.675
CANX-2 19 Dec 08:53:56 08:58:18 88° 283° (WNW) 09:02:36 2200.000
NANOSAT C BR1 19 Dec 08:54:53 08:57:56 20° 65° (ENE) 09:00:59 145.865
DANDE 19 Dec 08:56:46 08:59:28 21° 85° (E) 09:02:47 436.750
GOMX 1 19 Dec 09:00:15 09:04:57 78° 102° (ESE) 09:09:59 467.674
HO-68 19 Dec 09:08:09 09:15:22 89° 288° (WNW) 09:22:30 435.675
QB50P1 19 Dec 09:08:24 09:11:57 27° 68° (ENE) 09:15:30 145.935-145.965
UWE-3 19 Dec 09:09:59 09:13:42 24° 94° (E) 09:17:28 435.000/436.395/437.385
FUNcube-1 19 Dec 09:13:34 09:17:05 22° 93° (E) 09:20:36 145.935
O/OREOS (USA 219) 19 Dec 09:13:53 09:17:02 18° 53° (NE) 09:20:11 437.305
TIGRISAT 19 Dec 09:17:04 09:21:15 50° 72° (ENE) 09:25:34 435.000
COMPASS 1 19 Dec 09:20:28 09:24:43 68° 285° (WNW) 09:28:55 437.405
SEEDS 19 Dec 09:23:51 09:28:02 52° 287° (WNW) 09:32:12 437.485
CUTE 1.7 + AOD 2 19 Dec 09:25:11 09:29:19 44° 288° (WNW) 09:33:24 437.475
AISAT 19 Dec 09:25:25 09:28:05 16° 91° (E) 09:30:44 437.250
DX 1 19 Dec 09:30:27 09:34:41 49° 100° (E) 09:38:53 434.975-435.025
PHONESAT 2.4 19 Dec 09:31:37 09:33:06 12° 212° (SSW) 09:34:35 2401.200-2431.200
DOVE 4 19 Dec 09:33:14 09:37:55 68° 285° (WNW) 09:42:52 437.250
POPSAT HIP 1 19 Dec 09:36:14 09:40:19 53° 73° (ENE) 09:44:26 437.405
MaSat-1 19 Dec 09:43:42 09:45:14 16° 304° (NW) 09:46:44 437.345
UNISAT 6 19 Dec 09:45:11 09:49:32 81° 257° (WSW) 09:54:02 437.425
YUBILEINY 19 Dec 09:45:53 09:53:38 34° 69° (ENE) 10:01:20 435.215
DELFI C3 19 Dec 09:46:41 09:50:51 88° 102° (ESE) 09:54:58 145.870
50 SAT 19 Dec 09:49:32 09:52:53 23° 94° (E) 09:56:13 437.505
CUSAT 1 19 Dec 09:54:36 09:58:06 60° 284° (WNW) 10:02:50 437.405
Oscar 11 19 Dec 09:55:48 10:00:08 65° 286° (WNW) 10:04:27 145.826/435.025
HUMSAT D 19 Dec 09:58:51 10:02:53 37° 98° (E) 10:06:55 437.325/437.525
UKube-1 19 Dec 10:03:15 10:07:35 75° 286° (WNW) 10:11:54 .
CUBEBUG 2 19 Dec 10:04:16 10:08:54 83° 284° (WNW) 10:13:37 437.445
BRITE-PL 19 Dec 10:04:44 10:08:06 20° 294° (WNW) 10:11:38 437.365/2234.400
DUCHIFAT 1 19 Dec 10:04:57 10:09:09 74° 258° (WSW) 10:13:22 145.980
CINEMA 3 19 Dec 10:10:36 10:15:05 47° 288° (WNW) 10:19:44 145.822/145.860
BUGSAT 1 19 Dec 10:11:45 10:15:52 76° 257° (WSW) 10:19:57 437.445
ESTCUBE 1 19 Dec 10:15:44 10:19:12 21° 93° (E) 10:22:38 437.505/2401.250
ANTELSAT 19 Dec 10:17:25 10:21:26 36° 263° (W) 10:25:35 437.575/2403.000
QB50P2 19 Dec 10:17:29 10:21:36 52° 260° (W) 10:25:45 145.880/145.840
VELOX 1 19 Dec 10:18:21 10:22:42 54° 101° (E) 10:27:01 145.980
ZACube-1 19 Dec 10:21:51 10:26:21 74° 285° (WNW) 10:30:55 437.345
AAUSAT CUBESAT 2 19 Dec 10:22:56 10:25:49 18° 295° (WNW) 10:28:41 437.432
POLYITAN 1 19 Dec 10:25:54 10:29:54 42° 261° (W) 10:33:56 437.675
NANOSAT C BR1 19 Dec 10:29:37 10:33:33 39° 262° (W) 10:37:31 145.865
DANDE 19 Dec 10:39:51 10:42:48 24° 295° (WNW) 10:46:29 436.750
GOMX 1 19 Dec 10:40:18 10:42:34 14° 298° (WNW) 10:44:54 467.674
QB50P1 19 Dec 10:44:10 10:47:46 27° 264° (W) 10:51:24 145.935-145.965
UWE-3 19 Dec 10:46:08 10:50:18 36° 290° (WNW) 10:54:33 435.000/436.395/437.385
Oscar 19 19 Dec 10:47:53 10:49:29 11° 56° (NE) 10:51:04 437.125/150
FUNcube-1 19 Dec 10:49:21 10:53:32 39° 289° (WNW) 10:57:46 145.935
O/OREOS (USA 219) 19 Dec 10:52:22 10:56:46 54° 251° (WSW) 11:01:11 437.305
SPROUT 19 Dec 10:52:39 10:54:01 11° 89° (E) 10:55:23 437.525
TISAT 1 19 Dec 10:54:02 10:55:49 12° 90° (E) 10:57:36 437.305
TIGRISAT 19 Dec 10:55:40 10:58:20 16° 269° (W) 11:01:02 435.000
HO-68 19 Dec 10:57:18 11:02:08 20° 307° (NW) 11:06:57 435.675
AISAT 19 Dec 11:00:42 11:05:01 52° 288° (WNW) 11:09:20 437.250
DX 1 19 Dec 11:07:43 11:10:33 17° 297° (WNW) 11:13:23 434.975-435.025
CUBEBUG 1 19 Dec 11:12:13 11:16:34 80° 103° (ESE) 11:20:54 437.445
POPSAT HIP 1 19 Dec 11:14:21 11:16:33 14° 269° (W) 11:18:46 437.405
RS-15 19 Dec 11:17:27 11:27:50 52° 112° (ESE) 11:38:14 29.354- 29.394
50 SAT 19 Dec 11:24:28 11:28:08 31° 291° (WNW) 11:31:48 437.505
HUMSAT D 19 Dec 11:35:10 11:38:28 22° 294° (WNW) 11:41:47 437.325/437.525
CUBEBUG 2 19 Dec 11:44:14 11:44:52 10° 301° (WNW) 11:45:29 437.445
